Tours, France

12:53 PM CEST on June 25, 2018 (GMT +0200)
Val de Loire Air Base

Weather History for LFOT - February, 2012

Change the Weather History Date:

Wednesday, February 1, 2012

  Actual Average Record
Temperature  
Mean Temperature 28 °F -  
Max Temperature 30 °F 46 °F 57 °F (2002)
Min Temperature 26 °F 34 °F 24 °F (2011)
Degree Days  
Heating Degree Days 37    
Moisture  
Dew Point 23 °F    
Average Humidity 78    
Maximum Humidity 93    
Minimum Humidity 60    
Precipitation  
Precipitation 0.00 in - - ()
Sea Level Pressure  
Sea Level Pressure 30.18 in    
Wind  
Wind Speed 8 mph ()    
Max Wind Speed 16 mph    
Max Gust Speed 26 mph    
Visibility 3.9 miles    
Events      
Averages and records for this station are not official NWS values.
T = Trace of Precipitation, MM = Missing Value Source: Averaged Metar Reports

Daily Weather History Graph

Daily Weather History Graph

Search for Another Location

Airport or City:

Astronomy

Feb. 01, 2012 Rise Set
Actual Time 8:24 AM CET 5:57 PM CET
Civil Twilight 7:51 AM CET 6:30 PM CET
Nautical Twilight 7:14 AM CET 7:07 PM CET
Astronomical Twilight 6:38 AM CET 7:43 PM CET
Moon 12:09 PM CET (2/1) 3:00 AM CET (2/1)
Length of Visible Light 10h 39m
Length of Day
9h 33m
Waxing Gibbous, 62% of the Moon is Illuminated
Feb 1
Waxing Gibbous
Feb 7
Full
Feb 14
Last Quarter
Feb 21
New
Mar 1
First Quarter

Hourly Weather History & Observations

Time (CET) Temp. Windchill Dew Point Humidity Pressure Visibility Wind Dir Wind Speed Gust Speed Precip Events Conditions
12:00 AM 28.4 °F 24.6 °F 24.8 °F 86% 30.21 in 3.1 mi North 3.5 mph - N/A   Mostly Cloudy
12:30 AM 28.4 °F 23.3 °F 26.6 °F 93% 30.21 in 3.1 mi NNW 4.6 mph - N/A   Mostly Cloudy
1:00 AM 28 °F - 26 °F 88% 30.25 in 3 mi NNW 4.6 mph - -   Mostly Cloudy
1:30 AM 28.4 °F 23.3 °F 26.6 °F 93% 30.21 in - NNW 4.6 mph - N/A   Overcast
2:00 AM 28.4 °F 24.6 °F 26.6 °F 93% 30.18 in - NNW 3.5 mph - N/A   Overcast
2:30 AM 30.2 °F 26.7 °F 28.4 °F 93% 30.18 in - North 3.5 mph - N/A   Overcast
3:00 AM 30.2 °F 25.4 °F 28.4 °F 93% 30.18 in - NNE 4.6 mph - N/A   Overcast
3:30 AM 30.2 °F 25.4 °F 28.4 °F 93% 30.18 in 1.8 mi NNE 4.6 mph - N/A   Overcast
4:00 AM 30.2 °F 25.4 °F 28.4 °F 93% 30.15 in 1.9 mi NNE 4.6 mph - N/A   Mostly Cloudy
4:30 AM 30.2 °F 25.4 °F 28.4 °F 93% 30.15 in 1.9 mi NNE 4.6 mph - N/A   Mostly Cloudy
5:00 AM 30.2 °F 25.4 °F 28.4 °F 93% 30.15 in 1.9 mi NNE 4.6 mph - N/A   Mostly Cloudy
5:30 AM 30.2 °F 25.4 °F 28.4 °F 93% 30.15 in 1.9 mi NNE 4.6 mph - N/A   Mostly Cloudy
6:00 AM 32.0 °F 27.5 °F 28.4 °F 87% 30.15 in 1.9 mi NNE 4.6 mph - N/A   Mostly Cloudy
6:30 AM 30.2 °F 22.6 °F 28.4 °F 93% 30.15 in 1.9 mi NNE 8.1 mph - N/A   Mostly Cloudy
7:00 AM 30.2 °F 20.2 °F 26.6 °F 86% 30.15 in 1.9 mi NE 12.7 mph - N/A   Mostly Cloudy
7:30 AM 30.2 °F 21.3 °F 24.8 °F 80% 30.15 in - NE 10.4 mph - N/A   Overcast
8:00 AM 30.2 °F 21.9 °F 24.8 °F 80% 30.15 in 2.5 mi NE 9.2 mph - N/A   Overcast
8:30 AM 30.2 °F 20.8 °F 24.8 °F 80% 30.15 in - NE 11.5 mph - N/A   Overcast
9:00 AM 30.2 °F 20.8 °F 24.8 °F 80% 30.18 in - NE 11.5 mph - N/A   Mostly Cloudy
9:30 AM 28.4 °F 18.0 °F 24.8 °F 86% 30.18 in - NE 12.7 mph - N/A   Overcast
10:00 AM 28.4 °F 17.5 °F 23.0 °F 80% 30.18 in 3.1 mi NE 13.8 mph - N/A   Overcast
10:30 AM 28.4 °F 17.0 °F 21.2 °F 74% 30.18 in 3.7 mi NE 15.0 mph - N/A   Mostly Cloudy
11:00 AM 28.4 °F 18.0 °F 21.2 °F 74% 30.18 in - NE 12.7 mph - N/A   Mist
11:30 AM 28.4 °F 16.6 °F 21.2 °F 74% 30.18 in - NE 16.1 mph - N/A   Partly Cloudy
12:00 PM 28.4 °F 18.5 °F 21.2 °F 74% 30.18 in - NNE 11.5 mph - N/A   Mostly Cloudy
12:30 PM 28.4 °F 18.0 °F 21.2 °F 74% 30.18 in 3.1 mi NE 12.7 mph - N/A   Mostly Cloudy
1:00 PM 30 °F - 23 °F 65% 30.21 in 4 mi NE 11.5 mph - -   Clear
1:00 PM 30.2 °F 20.8 °F 23.0 °F 75% 30.18 in 4.3 mi NE 11.5 mph - N/A   Mostly Cloudy
1:30 PM 28.4 °F 17.5 °F 21.2 °F 74% 30.18 in 4.3 mi NNE 13.8 mph 26.5 mph N/A   Mostly Cloudy
2:00 PM 30.2 °F 19.3 °F 21.2 °F 69% 30.18 in 5.0 mi NNE 15.0 mph - N/A   Mostly Cloudy
2:30 PM 30.2 °F 18.9 °F 21.2 °F 69% 30.15 in 5.0 mi NE 16.1 mph - N/A   Unknown
3:00 PM 30.2 °F 20.2 °F 21.2 °F 69% 30.15 in 5.0 mi NNE 12.7 mph - N/A   Partly Cloudy
3:30 PM 30.2 °F 19.8 °F 21.2 °F 69% 30.15 in 5.0 mi NNE 13.8 mph - N/A   Partly Cloudy
4:00 PM 30.2 °F 20.2 °F 21.2 °F 69% 30.15 in 5.0 mi NNE 12.7 mph - N/A   Partly Cloudy
4:30 PM 30.2 °F 19.8 °F 21.2 °F 69% 30.15 in 5.0 mi NNE 13.8 mph - N/A   Partly Cloudy
5:00 PM 30.2 °F 21.3 °F 21.2 °F 69% 30.15 in 5.6 mi NNE 10.4 mph - N/A   Partly Cloudy
5:30 PM 30.2 °F 21.9 °F 21.2 °F 69% 30.18 in 5.0 mi NNE 9.2 mph 21.9 mph N/A   Scattered Clouds
6:00 PM 28.4 °F 18.5 °F 19.4 °F 69% 30.18 in 5.0 mi NNE 11.5 mph 24.2 mph N/A   Partly Cloudy
6:30 PM 28.4 °F 17.5 °F 19.4 °F 69% 30.18 in 5.6 mi NNE 13.8 mph - N/A   Mostly Cloudy
7:00 PM 28 °F - 20 °F 60% 30.23 in 6 mi NNE 11.5 mph - -   Mostly Cloudy
7:00 PM 28.4 °F 19.1 °F 19.4 °F 69% 30.18 in 6.2 mi NNE 10.4 mph - N/A   Mostly Cloudy
7:30 PM 28.4 °F 19.7 °F 19.4 °F 69% 30.18 in 6.2 mi NNE 9.2 mph - N/A   Mostly Cloudy
8:00 PM 26.6 °F 16.8 °F 19.4 °F 74% 30.21 in 6.2 mi NE 10.4 mph - N/A   Partly Cloudy
8:30 PM 26.6 °F 18.2 °F 19.4 °F 74% 30.21 in - NE 8.1 mph - N/A   Clear
9:00 PM 26.6 °F 18.2 °F 19.4 °F 74% 30.21 in - NNE 8.1 mph - N/A   Clear
9:30 PM 26.6 °F 17.5 °F 19.4 °F 74% 30.21 in - NNE 9.2 mph - N/A   Clear
10:00 PM 26.6 °F 16.2 °F 19.4 °F 74% 30.21 in - NNE 11.5 mph - N/A   Clear
10:30 PM 26.6 °F 16.8 °F 19.4 °F 74% 30.21 in - NNE 10.4 mph - N/A   Clear
11:00 PM 26.6 °F 16.2 °F 19.4 °F 74% 30.21 in - NNE 11.5 mph - N/A   Clear
11:30 PM 26.6 °F 16.8 °F 17.6 °F 69% 30.21 in - NNE 10.4 mph - N/A   Clear